METEOR 2-11 DEB

Satellite information

Favourite Embed

Satellite Type and Status

DEBRISIN ORBIT

Key statistics

Satellite METEOR 2-11 DEB at a glance.

Uptime

15137

Days in orbit

Revolutions

≈ 14.0

Per day

Orbit

LEO

Low Earth Orbit

Inclination

82.5

Latest

Satellite identification and parameters

Extended collection of information and parameters for METEOR 2-11 DEB.

Object identification

Identified? True

Debris? True

Object name: METEOR 2-11 DEB

International designator: 1984-072Y

Object number (NORAD): 60003

Object ID (CCSDS): 60003

Country: COMMONWEALTH OF INDEPENDENT STATES (CIS)

Current information (Y/N): Y

RCS size: SMALL

Orbital parameters

Period: 103.185 minutes

Inclination: 82.534 deg

SMA: 7287.38 km

Apoapsis: 926.558 km

Periapsis: 891.932 km

RAAN: 255.7362 deg

Eccentricy: 0.00237581

Argument of periapsis: 119.0907 deg

Mean anomaly: 241.2642 deg

Mean motion: 13.95550777 rev/day

Mean motion (dot): 0.00001577 rev/day2

B* drag term: 0.001147215 1/REarth

Two-line elements (TLE)

Creation date: Aug. 25, 2025, 2:12 a.m.

Reference frame: TEME

Reference center: EARTH

Epoch: Aug. 24, 2025, 6:38 p.m. UTC

TLE line 0: 0 METEOR 2-11 DEB

TLE line 1: 1 60003U 84072Y 25236.77676092 .00001577 00000-0 11472-2 0 9999

TLE line 2: 2 60003 82.5340 255.7362 0023758 119.0907 241.2642 13.95550777424959

Live tracking on map

Real-time ground track for satellite METEOR 2-11 DEB.

In-orbit conjunctions

A list of the most updated potential collisions computed for object METEOR 2-11 DEB.

Target Orbit TCA Probability of collision Miss distance Type
GGSE 5 LEO 2025-06-15 02:08:15 0.0006000822 972.0 (m) PAYLOAD
THOR ABLESTAR DEB LEO 2025-02-26 23:20:41 0.000125488 983.0 (m) DEBRIS
CZ-6A DEB LEO 2024-11-01 17:53:43 0.001466999 240.0 (m) DEBRIS
FENGYUN 1C DEB SSO 2024-10-20 17:27:53 0.0001344494 306.0 (m) DEBRIS
FENGYUN 1C DEB SSO 2024-09-15 22:21:50 0.0001865824 163.0 (m) DEBRIS

Associated space launch

Second generation soviet meteorological satellite

METEOR 2-11 DEB was lifted into orbit during the mission ‘Tsiklon-3 | Meteor-2 11’, on board a Tsiklon-3 space rocket.

The launch took place on July 5, 1984, 3:35 a.m. from 32/2.

For more information about the launch, click the button.

Launch to space Tsiklon-3 | Meteor-2 11
Tsiklon-3 | Meteor-2 11

Agency: N/A

Status: Launch Successful

Launch date: July 5, 1984, 3:35 a.m. UTC

Rocket: Tsiklon-3

Launch pad: 32/2

Location: Plesetsk Cosmodrome, Russian Federation

...

Latest news about this satellite

There are no fresh news available about this satellite. Check back as we update our databases every day.


Newsletter sign-up

Weekly statistics, charts and insights to help you stay on top of the space industry.